Stations météo

Publicité
Siracusa, Italie (16464): Température de l'air & dewpoint: 20.06.2019 19:00:00 - 26.06.2019 19:00:00 (CEST)Siracusa, Italie (16464): reduced air pressure: 20.06.2019 19:00:00 - 26.06.2019 19:00:00 (CEST)
Date & Time tt [°C] td [°C] ppp [hPa]
26.06.2019 19:00:00 29,3 18,7 1017,3
26.06.2019 18:00:00 29,1 20,5 1017,3
26.06.2019 17:00:00 27,9 21,4 1017,5
26.06.2019 16:00:00 29,0 19,6 1017,7
26.06.2019 15:00:00 29,7 20,2 1018,0
26.06.2019 14:00:00 30,3 19,9 1018,2
26.06.2019 13:00:00 32,0 17,5 1018,5
26.06.2019 12:00:00 31,9 16,6 1018,3
26.06.2019 11:00:00 31,0 17,6 1018,3
26.06.2019 10:00:00 29,4 18,8 1018,2
26.06.2019 09:00:00 27,4 19,2 1018,5
26.06.2019 08:00:00 26,6 19,4 1018,2
26.06.2019 07:00:00 25,6 19,4 1017,8
26.06.2019 06:00:00 25,2 19,3 1017,5
26.06.2019 05:00:00 25,1 19,6 1017,3
26.06.2019 04:00:00 25,5 19,8 1017,6
26.06.2019 03:00:00 25,2 20,0 1017,8
26.06.2019 02:00:00 25,6 20,3 1018,2
26.06.2019 01:00:00 25,9 20,2 1018,5
26.06.2019 00:00:00 26,5 19,8 1018,7
25.06.2019 23:00:00 26,7 19,8 1018,5
25.06.2019 22:00:00 27,8 19,0 1018,1
25.06.2019 21:00:00 28,6 18,3 1017,6
25.06.2019 20:00:00 28,7 18,7 1017,4
25.06.2019 19:00:00 29,3 18,4 1017,2
25.06.2019 18:00:00 29,5 19,5 1017,1
25.06.2019 17:00:00 29,5 19,8 1017,0
25.06.2019 16:00:00 30,7 17,0 1017,2
25.06.2019 15:00:00 29,1 19,1 1017,2
25.06.2019 14:00:00 27,1 20,4 1017,4
25.06.2019 13:00:00 27,1 20,1 1017,4
25.06.2019 12:00:00 27,1 18,6 1017,4
25.06.2019 11:00:00 27,7 19,4 1017,5
25.06.2019 10:00:00 27,0 20,0 1017,3
25.06.2019 09:00:00 27,0 19,3 1017,1
25.06.2019 08:00:00 25,9 18,8 1016,8
25.06.2019 07:00:00 - - -
25.06.2019 06:00:00 23,4 19,9 1016,3
25.06.2019 05:00:00 23,0 19,1 1015,8
25.06.2019 04:00:00 22,9 18,8 1015,8
25.06.2019 03:00:00 23,6 20,3 1016,2
25.06.2019 02:00:00 23,8 20,7 1016,4
25.06.2019 01:00:00 24,2 21,1 1016,8
25.06.2019 00:00:00 24,4 21,5 1016,7
24.06.2019 23:00:00 24,6 21,5 1016,7
24.06.2019 22:00:00 24,9 20,9 1016,5
24.06.2019 21:00:00 25,5 20,5 1015,8
24.06.2019 20:00:00 25,9 21,1 1015,5
24.06.2019 19:00:00 26,4 21,8 1015,3
24.06.2019 18:00:00 26,3 21,5 1015,1
24.06.2019 17:00:00 26,4 21,6 1015,3
24.06.2019 16:00:00 - - -
24.06.2019 15:00:00 27,0 21,9 1015,3
24.06.2019 14:00:00 26,4 21,6 1015,5
24.06.2019 13:00:00 26,3 21,7 1015,7
24.06.2019 12:00:00 27,4 22,3 1015,6
24.06.2019 11:00:00 28,1 21,6 1015,2
24.06.2019 10:00:00 27,0 21,5 1015,4
24.06.2019 09:00:00 26,1 20,8 1015,6
24.06.2019 08:00:00 25,5 20,5 1015,3
24.06.2019 07:00:00 24,3 19,5 1015,3
24.06.2019 06:00:00 22,6 17,0 1015,0
24.06.2019 05:00:00 21,7 16,4 1014,6
24.06.2019 04:00:00 23,1 17,9 1014,4
24.06.2019 03:00:00 23,9 18,9 1014,0
24.06.2019 02:00:00 24,3 19,1 1014,4
24.06.2019 01:00:00 25,9 19,2 1014,6
24.06.2019 00:00:00 25,3 18,7 1014,6
23.06.2019 23:00:00 25,8 20,1 1014,6
23.06.2019 22:00:00 25,7 20,9 1014,6
23.06.2019 21:00:00 26,7 21,8 1014,2
23.06.2019 20:00:00 27,5 21,5 1014,0
23.06.2019 19:00:00 28,5 19,9 1013,9
23.06.2019 18:00:00 30,3 17,0 1013,5
23.06.2019 17:00:00 31,7 17,9 1013,9
23.06.2019 16:00:00 28,8 19,9 1014,4
23.06.2019 15:00:00 31,3 13,6 1014,5
23.06.2019 14:00:00 33,2 12,8 1015,2
23.06.2019 13:00:00 30,3 18,4 1015,6
23.06.2019 12:00:00 34,3 18,4 1015,7
23.06.2019 11:00:00 34,7 5,4 1016,3
23.06.2019 10:00:00 32,0 9,0 1016,7
23.06.2019 09:00:00 27,1 17,5 1015,5
23.06.2019 08:00:00 23,6 14,2 1015,0
23.06.2019 07:00:00 21,9 14,0 1015,3
23.06.2019 06:00:00 21,5 13,3 1015,0
23.06.2019 05:00:00 22,8 14,8 1014,8
23.06.2019 04:00:00 22,1 14,9 1014,6
23.06.2019 03:00:00 22,8 16,7 1014,7
23.06.2019 02:00:00 23,0 17,8 1015,1
23.06.2019 01:00:00 24,7 18,3 1015,3
23.06.2019 00:00:00 25,3 19,8 1015,6
22.06.2019 23:00:00 25,7 20,4 1015,7
22.06.2019 22:00:00 26,5 21,0 1015,4
22.06.2019 21:00:00 25,9 21,7 1015,1
22.06.2019 20:00:00 26,5 22,1 1015,2
22.06.2019 19:00:00 27,5 22,2 1015,1
22.06.2019 18:00:00 28,5 22,4 1015,0
22.06.2019 17:00:00 29,3 21,5 1015,5
22.06.2019 16:00:00 - - -
22.06.2019 15:00:00 29,1 19,4 1016,4
22.06.2019 14:00:00 28,4 20,6 1017,0
22.06.2019 13:00:00 27,3 21,3 1016,7
22.06.2019 12:00:00 28,7 22,9 1016,6
22.06.2019 11:00:00 27,5 21,2 1016,4
22.06.2019 10:00:00 28,9 21,6 1016,0
22.06.2019 09:00:00 26,2 20,7 1015,9
22.06.2019 08:00:00 23,7 17,8 1016,0
22.06.2019 07:00:00 21,5 15,9 1015,8
22.06.2019 06:00:00 20,8 15,7 1015,5
22.06.2019 05:00:00 20,9 16,6 1015,3
22.06.2019 04:00:00 21,9 18,0 1015,7
22.06.2019 03:00:00 23,1 19,8 1015,8
22.06.2019 02:00:00 23,0 19,1 1015,8
22.06.2019 01:00:00 23,7 19,8 1016,2
22.06.2019 00:00:00 24,4 20,9 1016,4
21.06.2019 23:00:00 24,9 20,7 1016,3
21.06.2019 22:00:00 25,5 21,9 1015,9
21.06.2019 21:00:00 25,5 21,5 1015,4
21.06.2019 20:00:00 26,0 21,2 1015,4
21.06.2019 19:00:00 26,5 21,4 1015,4
21.06.2019 18:00:00 26,9 21,6 1015,1
21.06.2019 17:00:00 27,0 22,3 1015,3
21.06.2019 16:00:00 27,4 22,3 1015,4
21.06.2019 15:00:00 27,3 20,8 1015,6
21.06.2019 14:00:00 27,9 19,6 1015,7
21.06.2019 13:00:00 28,4 17,2 1015,9
21.06.2019 12:00:00 28,7 16,6 1016,0
21.06.2019 11:00:00 27,3 16,8 1016,2
21.06.2019 10:00:00 26,9 17,9 1016,2
21.06.2019 09:00:00 25,9 18,3 1016,3
21.06.2019 08:00:00 23,2 17,4 1015,9
21.06.2019 07:00:00 20,9 15,6 1015,4
21.06.2019 06:00:00 20,6 15,9 1015,1
21.06.2019 05:00:00 20,8 15,7 1015,0
21.06.2019 04:00:00 23,4 18,6 1014,8
21.06.2019 03:00:00 24,0 19,0 1014,5
21.06.2019 02:00:00 24,2 18,8 1014,6
21.06.2019 01:00:00 24,3 20,4 1014,7
21.06.2019 00:00:00 25,0 20,8 1014,7
20.06.2019 23:00:00 25,0 20,6 1014,8
20.06.2019 22:00:00 25,5 20,9 1014,5
20.06.2019 21:00:00 - - -
20.06.2019 20:00:00 25,7 21,1 1013,9
20.06.2019 19:00:00 26,4 21,1 1013,8

tt = Température de l'air
td = dewpoint
ppp = reduced air pressure

stations d'obs. à proximité